Starlink 6153

operational
NORAD ID: 56384 Int'l Des: 2023-061 Owner: SPXS Country: US Constellation: starlink
LEOCIRCULAR

Über Starlink 6153

Beschreibung wird geladen...

Live-Position

3D-Globus wird geladen...

Nächste Überflüge

Höhenverlauf

Altitude vs Time

uPlot chart will show altitude changes over time

Zweizeiliger Elementsatz

1 56384U 23061L 25259.16165070 .00000508 00000-0 52660-4 0 9993
2 56384 43.0043 65.5801 0001187 267.8523 92.2184 15.02539256130500
Epoch: 16. Sept. 2025 • Age: 13 hours

Aktueller Status

Höhe 559.0 km
Geschwindigkeit 7.59 km/s
Subsatellitenpunkt 21.85°N, 38.1°W
Startdatum 4. Mai 2023
Alter 2.3 years
Typ internet

Technische Details

Klassifizierung Payload
Masse 305.00 kg
Trockenmasse 290.00 kg
Gesamtmasse 305.00 kg
Länge 0.20 m
Durchmesser 2.80 m
Spannweite 9.00 m
Form Box + pan
Hersteller SPXS
Bus-Typ Starlink
Phasenstatus In Orbit
Besitzer/Staat SPXS/US

Große Konstellationen

Loading constellations...